EW9487 Weather Reports


time (UTC)temp
F
wind
direction
speed
knots
gust
knots
rain 1hr
in
rain 24hr
in
rain mn
in
humidity
%
barometer
mb
20260510161600 84 290 0.9 2.6 0.00 0.00 0.00 34 1013.6
20260510160100 85 301 0.0 1.7 0.00 0.00 0.00 33 1013.7
20260510154553 83 283 0.0 1.7 0.00 0.00 0.00 41 1013.7
20260510153059 83 15 0.0 0.0 0.00 0.00 0.00 42 1013.6
20260510151555 83 276 0.0 0.0 0.00 0.00 0.00 45 1013.8
20260510150043 82 96 0.0 2.6 0.00 0.00 0.00 43 1013.7
20260510144542 80 250 0.0 0.0 0.00 0.00 0.00 49 1013.7
20260510143038 79 285 0.0 0.0 0.00 0.00 0.00 51 1013.5
20260510141534 76 241 0.0 0.0 0.00 0.00 0.00 54 1013.5
20260510140035 74 207 0.0 0.0 0.00 0.00 0.00 62 1013.6
20260510134530 70 229 0.0 0.0 0.00 0.00 0.00 67 1013.6
20260510133029 68 155 0.0 0.0 0.00 0.00 0.00 68 1013.8
20260510131530 67 188 0.0 0.0 0.00 0.00 0.00 64 1013.8
20260510130027 65 233 0.0 0.0 0.00 0.00 0.00 56 1013.7
20260510124529 64 46 0.0 0.0 0.00 0.00 0.00 48 1013.6
20260510123130 64 343 0.0 0.0 0.00 0.00 0.00 46 1013.6
20260510121519 65 295 0.0 0.0 0.00 0.00 0.00 51 1013.3
20260510120019 65 295 0.0 0.0 0.00 0.00 0.00 28 1013.1
20260510114524 63 295 0.0 0.0 0.00 0.00 0.00 18 1012.9
20260510114518 63 295 0.0 0.0 0.00 0.00 0.00 17 1012.9
20260510113046 59 295 0.0 0.0 0.00 0.00 0.00 18 1012.6
20260510111540 55 295 0.0 0.0 0.00 0.00 0.00 22 1012.5
20260510110031 0 0.0 0.0 0.00 0.00 0.00 1012.2
20260510104523 0 0.0 0.0 0.00 0.00 0.00 1012.0
20260510103028 0 0.0 0.0 0.00 0.00 0.00 1011.8
20260510101523 0 0.0 0.0 0.00 0.00 0.00 1011.7
20260510100029 0 0.0 0.0 0.00 0.00 0.00 1011.6
20260510094515 0 0.0 0.0 0.00 0.00 0.00 1011.0
20260510093007 0 0.0 0.0 0.00 0.00 0.00 1010.9
20260510091503 56 172 0.0 0.0 0.00 0.00 0.00 23 1010.7
20260510090103 57 166 0.0 0.0 0.00 0.00 0.00 22 1010.6
20260510084612 58 166 0.0 0.0 0.00 0.00 0.00 22 1010.5
20260510083057 58 166 0.0 0.0 0.00 0.00 0.00 23 1010.3
20260510081558 58 166 0.0 0.0 0.00 0.00 0.00 25 1010.4
20260510080028 58 166 0.0 0.0 0.00 0.00 0.00 25 1010.3
20260510074520 59 166 0.0 0.0 0.00 0.00 0.00 25 1010.4
20260510073017 59 166 0.0 0.0 0.00 0.00 0.00 24 1010.3
20260510071518 60 166 0.0 0.0 0.00 0.00 0.00 24 1010.2
20260510070014 60 166 0.0 0.0 0.00 0.00 0.00 26 1010.2
20260510064518 60 166 0.0 0.0 0.00 0.00 0.00 27 1010.3
20260510063009 61 166 0.0 0.0 0.00 0.00 0.00 27 1010.2
20260510061508 60 166 0.0 0.0 0.00 0.00 0.00 29 1010.3
20260510060008 61 166 0.0 0.0 0.00 0.00 0.00 28 1010.5
20260510054506 61 166 0.0 0.0 0.00 0.00 0.00 27 1010.6
20260510053005 61 166 0.0 0.0 0.00 0.00 0.00 29 1010.6
20260510051502 60 166 0.0 0.0 0.00 0.00 0.00 29 1010.7
20260510044600 59 166 0.0 0.0 0.00 0.00 0.00 38 1010.7
20260510043108 60 166 0.0 0.0 0.00 0.00 0.00 38 1010.7
20260510041553 60 166 0.0 0.0 0.00 0.00 0.00 41 1010.7
20260510040058 60 166 0.0 0.0 0.00 0.00 0.00 44 1010.6
20260510034552 60 166 0.0 0.0 0.00 0.00 0.00 49 1010.4
20260510033058 60 166 0.0 0.0 0.00 0.00 0.00 54 1010.2
20260510031544 60 166 0.0 0.0 0.00 0.00 0.00 57 1010.2
20260510030045 60 166 0.0 0.0 0.00 0.00 0.00 61 1010.2
20260510024540 61 166 0.0 0.0 0.00 0.00 0.00 63 1010.1
20260510023036 61 166 0.0 0.0 0.00 0.00 0.00 65 1010.0
20260510021533 62 166 0.0 0.0 0.00 0.00 0.00 67 1009.9
20260510020029 62 166 0.0 0.0 0.00 0.00 0.00 67 1009.7
20260510014527 62 166 0.0 0.0 0.00 0.00 0.00 69 1009.5
20260510013022 63 166 0.0 0.0 0.00 0.00 0.00 71 1009.3
20260510011533 64 166 0.0 0.0 0.00 0.00 0.00 71 1009.3
20260510010014 66 166 0.0 0.0 0.00 0.00 0.00 71 1009.0
20260510004512 66 166 0.0 0.0 0.00 0.00 0.00 70 1008.8
20260510003004 68 166 0.0 0.0 0.00 0.00 0.00 69 1008.8
20260510001600 69 166 0.0 0.0 0.00 0.00 0.00 68 1008.5
20260510000106 70 166 0.0 0.0 0.00 0.00 0.00 65 1008.4
20260509234600 71 166 0.0 0.0 0.00 0.00 0.00 63 1008.1
20260509233051 72 168 0.0 1.7 0.00 0.00 0.00 63 1007.9
20260509231517 73 165 0.0 0.0 0.00 0.00 0.00 62 1008.0
20260509230014 73 206 0.0 0.0 0.00 0.00 0.00 60 1008.1
20260509224510 74 229 0.0 0.9 0.00 0.00 0.00 58 1007.9
20260509223006 75 155 0.0 2.6 0.00 0.00 0.00 56 1008.0
20260509221505 76 246 0.0 0.0 0.00 0.00 0.00 55 1007.9
20260509220004 76 168 0.0 0.0 0.00 0.00 0.00 54 1007.7
20260509214501 77 198 0.0 0.9 0.00 0.00 0.00 52 1007.8
20260509213101 77 238 0.0 2.6 0.00 0.00 0.00 50 1007.6
20260509211602 78 172 0.9 3.5 0.00 0.00 0.00 48 1007.5
20260509210107 79 212 0.0 1.7 0.00 0.00 0.00 47 1007.5
20260509204558 78 138 0.0 5.2 0.00 0.00 0.00 47 1007.6
20260509203057 78 210 0.0 1.7 0.00 0.00 0.00 51 1007.6
20260509201556 80 264 0.9 4.3 0.00 0.00 0.00 47 1007.7
20260509200105 78 144 0.9 4.3 0.00 0.00 0.00 49 1007.8
20260509194526 77 241 0.0 3.5 0.00 0.00 0.00 53 1007.8
20260509193022 77 221 1.7 3.5 0.00 0.00 0.00 50 1008.2
20260509191519 76 227 1.7 5.2 0.00 0.00 0.00 53 1008.3
20260509190013 76 156 0.0 0.0 0.00 0.00 0.00 54 1008.6
20260509184512 76 167 0.0 0.0 0.00 0.00 0.00 53 1008.7
20260509183011 76 159 1.7 4.3 0.00 0.00 0.00 50 1008.8
20260509181502 78 213 0.0 4.3 0.00 0.00 0.00 48 1008.9
20260509180058 79 228 0.0 3.5 0.00 0.00 0.00 44 1009.1
20260509174553 79 228 0.0 2.6 0.00 0.00 0.00 47 1009.2
20260509173102 78 151 1.7 4.3 0.00 0.00 0.00 48 1009.3
20260509171547 78 224 0.0 2.6 0.00 0.00 0.00 48 1009.3
20260509170046 77 257 0.0 2.6 0.00 0.00 0.00 50 1009.4
20260509164542 76 184 0.9 3.5 0.00 0.00 0.00 52 1010.1
20260509163041 75 167 1.7 4.3 0.00 0.00 0.00 53 1010.4